www.pogodaiklimat.ru

Погода и климат >> Архив погоды >> Канарские Острова >> La Palma


ПОГОДА в La Palma

  • Прогноз погоды в La Palma
  • Монитор погоды в La Palma
  • Климат города

АРХИВ ПОГОДЫ в La Palma

Время (UTC), дата Ветер
(напр.,м/с)
 
Видим.   Явления Облачность Т
(С)
Тd
(С)
f
(%)
Тe
(С)
Тes
(С)
Комфортность P
(гПа)
Po
(гПа)
Тmin
(С)
Tmax
(С)
R
(мм)
R24
(мм)
S
(см)
17 20.06 СВ 7 н/о н/о +23.5 +18.2 72 +28 +28 душно 1014.7 1011.1
16 20.06 СВ 5 н/о н/о +23.5 +18.6 74 +28 +28 душно 1014.9 1011.3
18 20.06 СВ 7 20 км [макс. диам. градин 0 мм] 8/8 600 м
[Cu Sc]
+23.0 +19.0 78 +29 +29 очень
душно
1014.6 1011.0 +25.1
19 20.06 СВ 7 н/о н/о +22.9 +19.1 79 +29 +29 очень
душно
1014.7 1011.1
20 20.06 СВ 5 н/о н/о +22.7 +18.7 78 +28 +28 душно 1015.8 1012.1
21 20.06 С 4 н/о н/о +22.8 +18.3 76 1016.4
23 20.06 С 2 н/о н/о +22.6 +18.1 76 +28 +28 душно 1017.1 1013.4
22 20.06 СВ 4 н/о н/о +22.5 +18.5 78 +28 +28 душно 1016.9 1013.2
00 21.06 С 2 н/о н/о +22.6 +17.0 71 +27 +27 душно 1016.7 1013.0
01 21.06 С 3 н/о н/о +22.2 +17.1 73 +27 +27 душно 1015.8 1012.1
02 21.06 З 3 н/о н/о +20.9 +15.2 70 +24 +24 комфорт 1014.9 1011.2
03 21.06 З 3 н/о н/о +21.7 +15.3 67 1014.7
05 21.06 СЗ 1 н/о н/о +22.0 +16.5 71 +26 +26 душно 1014.7 1011.0
04 21.06 СЗ 3 н/о н/о +22.0 +15.6 67 +26 +26 душно 1014.5 1010.8
06 21.06 СЗ 1 20 км [макс. диам. градин 0 мм] 9/9 600 м
[Cu Sc]
+21.8 +16.1 70 +26 +26 душно 1014.8 1011.1 +20.9
07 21.06 СЗ 2 н/о н/о +21.9 +16.0 69 +26 +26 душно 1014.9 1011.2
08 21.06 С 4 н/о н/о +22.5 +16.7 70 +27 +27 душно 1015.5 1011.8
09 21.06 СВ 6 20 км 9/9 600 м
[Cu Sc]
+23.2 +16.6 66 1015.7
11 21.06 СВ 6 н/о н/о +24.4 +17.0 63 +28 +28 душно 1016.0 1012.4
10 21.06 СВ 6 н/о н/о +23.5 +16.9 66 +27 +27 душно 1015.8 1012.2
12 21.06 С 5 20 км 4/4 600 м
[Cu Sc]
+25.4 +17.1 60 +29 +35 душно 1015.9 1012.3
13 21.06 С 6 н/о н/о +25.7 +16.6 57 +29 +29 душно 1015.9 1012.3
14 21.06 С 4 н/о н/о +25.6 +16.5 57 +29 +29 душно 1015.6 1012.0
15 21.06 С 5 30 км 1/1 600 м
[Cu Sc]
+25.6 +17.9 62 1014.9
17 21.06 С 4 н/о н/о +24.6 +17.0 63 +28 +28 душно 1015.2 1011.6
16 21.06 С 4 н/о н/о +24.7 +16.5 60 +28 +28 душно 1015.1 1011.5
18 21.06 С 4 30 км [макс. диам. градин 0 мм] 4/4 600 м
[Cu Sc]
+23.7 +17.5 68 +28 +30 душно 1015.5 1011.9 +26.1
19 21.06 С 4 н/о н/о +23.3 +17.7 71 +29 +29 душно 1015.5 1011.9
20 21.06 С 4 н/о н/о +22.9 +18.0 74 +28 +28 душно 1015.7 1012.1
21 21.06 СВ 4 н/о н/о +22.6 +17.8 74 1016.7
23 21.06 С 4 н/о н/о +22.2 +17.1 73 +27 +27 душно 1016.7 1013.0
22 21.06 С 4 н/о н/о +22.3 +17.4 74 +27 +27 душно 1016.7 1013.0
00 22.06 СЗ 4 н/о н/о +22.2 +17.3 74 +27 +27 душно 1016.8 1013.1
01 22.06 СЗ 4 н/о н/о +22.2 +17.1 73 +27 +27 душно 1016.3 1012.6
02 22.06 0 н/о
03 22.06 0 н/о
05 22.06 0 н/о
04 22.06 0 н/о
06 22.06 0 [макс. диам. градин 0 мм] н/о
07 22.06 СЗ 4 н/о н/о +22.1 +17.0 73 +27 +27 душно 1015.9 1012.2
08 22.06 С 4 н/о н/о +22.7 +18.2 76 +28 +28 душно 1016.2 1012.5
09 22.06 С 5 30 км 5/5 600 м
[Sc Ac trans]
+24.1 +18.7 72 1016.5
11 22.06 СВ 3 н/о н/о +24.7 +18.9 70 +30 +30 очень
душно
1018.2 1014.6
10 22.06 С 4 н/о н/о +25.2 +19.2 69 +30 +30 душно 1017.5 1013.9
12 22.06 С 2 25 км [макс. диам. градин 0 мм] 5/4 600 м
[Sc Ac trans]
+26.0 +19.1 66 +31 +42 очень
душно
1017.7 1014.1
13 22.06 СВ 4 н/о н/о +25.1 +19.6 72 +31 +31 очень
душно
1018.0 1014.4
14 22.06 С 5 н/о н/о +26.3 +19.2 65 +32 +32 очень
душно
1017.1 1013.5
15 22.06 С 6 20 км ясно +25.6 +19.4 69 1016.3
17 22.06 СВ 6 н/о н/о +24.1 +19.6 76 +29 +29 душно 1015.6 1012.0
16 22.06 СВ 6 н/о н/о +24.3 +19.6 75 +30 +30 очень
душно
1016.4 1012.8
18 22.06 СВ 7 20 км [макс. диам. градин 0 мм] 5/5 600 м
[Cu Sc]
+23.4 +19.8 80 +30 +31 очень
душно
1015.2 1011.6 +26.5
19 22.06 СВ 7 н/о н/о +23.0 +19.5 81 +30 +30 очень
душно
1014.8 1011.2
20 22.06 С 5 н/о н/о +22.9 +19.7 82 +29 +29 очень
душно
1015.4 1011.8
21 22.06 С 5 20 км 8/8 600 м
[Cu Sc]
+22.8 +19.8 83 1016.2
23 22.06 С 6 н/о н/о +22.6 +19.8 84 +29 +29 очень
душно
1017.1 1013.4
22 22.06 С 7 н/о н/о +22.7 +19.9 84 +29 +29 очень
душно
1016.5 1012.8
00 23.06 С 6 н/о н/о +22.7 +19.4 82 +29 +29 очень
душно
1017.3 1013.6
01 23.06 С 7 н/о н/о +22.4 +19.6 84 +28 +28 душно 1017.0 1013.3
02 23.06 С 6 н/о н/о +22.2 +19.4 84 +28 +28 душно 1016.5 1012.8
03 23.06 С 5 н/о н/о +21.9 +18.8 83 1015.7
05 23.06 С 5 н/о н/о +21.9 +19.8 88 +28 +28 душно 1015.8 1012.1
04 23.06 С 5 н/о н/о +21.8 +19.4 86 +27 +27 душно 1016.0 1012.3
06 23.06 С 4 20 км [макс. диам. градин 0 мм] ясно +21.6 +19.3 87 +27 +27 душно 1016.2 1012.5 +21.5
07 23.06 С 4 н/о н/о +21.9 +19.2 85 +27 +27 душно 1016.9 1013.2
08 23.06 С 5 н/о н/о +22.7 +19.7 83 +29 +29 очень
душно
1016.9 1013.2
09 23.06 С 5 20 км ясно +23.8 +20.1 80 1016.8
11 23.06 СВ 5 н/о н/о +24.9 +20.4 76 +31 +31 очень
душно
1016.9 1013.3
10 23.06 С 5 н/о н/о +24.6 +20.2 77 +30 +30 очень
душно
1016.8 1013.2
12 23.06 С 5 20 км [макс. диам. градин 0 мм] 1/1 600 м
[Cu Sc]
+25.8 +20.6 73 +32 +41 очень
душно
1017.1 1013.5
13 23.06 СВ 6 20 км 1/1 600 м
[Cu Sc]
+25.3 +20.6 75 +31 +39 очень
душно
1016.8 1013.2
14 23.06 СВ 6 н/о н/о +24.7 +20.6 78 +31 +31 очень
душно
1016.9 1013.3
15 23.06 С 7 15 км 4/3 300 м
[Sc As trans]
+24.9 +21.0 79 1016.2
17 23.06 СВ 8 н/о н/о +24.0 +20.7 82 +30 +30 очень
душно
1015.9 1012.3
16 23.06 СВ 7 н/о н/о +24.4 +20.8 80 +30 +30 очень
душно
1016.3 1012.7
18 23.06 СВ 8 12 км [макс. диам. градин 0 мм] 6/3 300 м
[Sc As trans]
+23.4 +20.7 85 +31 +31 очень
душно
1015.7 1012.1 +26.0
19 23.06 СВ 8 н/о н/о +23.2 +20.7 86 +31 +31 очень
душно
1015.8 1012.2
20 23.06 СВ 8 н/о н/о +22.9 +20.6 87 +30 +30 очень
душно
1016.3 1012.7
21 23.06 С 6 н/о н/о +22.8 +20.0 84 1016.6
23 23.06 СВ 7 н/о н/о +22.7 +20.0 85 +29 +29 очень
душно
1017.7 1014.0
22 23.06 С 4 н/о н/о +22.9 +20.1 84 +30 +30 очень
душно
1017.3 1013.6
00 24.06 С 3 н/о н/о +22.7 +19.7 83 +29 +29 очень
душно
1017.7 1014.0
01 24.06 штиль 0 н/о н/о +22.6 +19.6 83 +29 +29 очень
душно
1017.5 1013.8
02 24.06 штиль 0 н/о н/о +22.3 +19.7 85 +28 +28 душно 1017.0 1013.3
03 24.06 СВ 6 н/о н/о +22.4 +19.6 84 1016.5
05 24.06 З 2 н/о н/о +22.0 +19.2 84 +27 +27 душно 1015.9 1012.2
04 24.06 СВ 6 н/о н/о +22.2 +19.7 86 +28 +28 душно 1016.2 1012.5
06 24.06 ЮЗ 1 15 км [макс. диам. градин 0 мм] 1/1 600 м
[Cu hum]
+21.5 +18.7 84 +26 +26 душно 1015.4 1011.7 +21.4
07 24.06 СЗ 1 н/о н/о +22.1 +17.5 75 +27 +27 душно 1015.5 1011.8
08 24.06 СВ 1 н/о н/о +23.9 +19.7 77 +29 +29 душно 1015.8 1012.2
09 24.06 С 6 15 км 8/0
[As trans Ci fib]
+24.2 +19.9 77 1015.9
11 24.06 СВ 9 н/о н/о +24.8 +20.3 76 +31 +31 очень
душно
1015.9 1012.3
10 24.06 СВ 5 н/о н/о +24.2 +20.0 77 +30 +30 очень
душно
1016.1 1012.5
12 24.06 СВ 12 15 км [макс. диам. градин 0 мм] 3/0
[Ac trans Ci fib]
+24.3 +20.4 79 +30 +30 очень
душно
1016.0 1012.4
13 24.06 СВ 9 н/о н/о +25.1 +20.3 75 +31 +31 очень
душно
1015.6 1012.0
14 24.06 СВ 12 н/о н/о +24.5 +20.3 77 +30 +30 очень
душно
1015.1 1011.5
15 24.06 СВ 9 15 км мгла 4/0
[Ac As]
+24.9 +19.9 74 1014.4
17 24.06 СВ 8 н/о н/о +25.0 +19.4 71 +30 +30 душно 1013.6 1010.0
16 24.06 СВ 7 н/о н/о +24.5 +20.1 76 +30 +30 очень
душно
1014.2 1010.6
18 24.06 С 7 25 км [макс. диам. градин 0 мм] 8/0
[Ac und Cs]
+25.3 +18.0 64 +30 +30 душно 1013.4 1009.8 +25.8
19 24.06 СВ 4 н/о н/о +25.0 +18.0 65 +29 +29 душно 1013.8 1010.2
20 24.06 С 4 н/о н/о +24.3 +19.1 73 +29 +29 душно 1013.9 1010.3
21 24.06 С 3 н/о н/о +23.9 +18.4 71 1014.1
23 24.06 С 2 н/о н/о +23.2 +17.9 72 +29 +29 душно 1014.6 1011.0
22 24.06 С 3 н/о н/о +23.7 +18.3 72 +28 +28 душно 1014.3 1010.7
00 25.06 СВ 8 н/о н/о +22.6 +19.3 82 +29 +29 очень
душно
1014.7 1011.1
01 25.06 С 5 н/о н/о +22.6 +18.4 77 +28 +28 душно 1014.1 1010.5
02 25.06 С 1 н/о н/о +22.4 +17.9 76 +27 +27 душно 1013.2 1009.6
03 25.06 С 6 н/о н/о +22.2 +18.9 82 1012.7
05 25.06 СВ 9 н/о н/о +21.9 +19.4 86 +27 +27 душно 1012.5 1008.9
04 25.06 С 6 н/о н/о +22.1 +19.1 83 +28 +28 душно 1012.4 1008.8
06 25.06 С 9 15 км [макс. диам. градин 0 мм] 5/1 600 м
[Sc Ac trans Cc]
+21.8 +19.0 84 +27 +27 душно 1012.7 1009.1 +21.6
07 25.06 С 5 н/о н/о +22.3 +18.4 79 +28 +28 душно 1012.8 1009.2
08 25.06 С 8 н/о н/о +23.0 +20.0 83 +30 +30 очень
душно
1013.5 1009.9
09 25.06 СВ 8 20 км 4/1 600 м
[Sc Ac As Cc]
+23.9 +20.2 80 1013.6
11 25.06 СВ 8 н/о н/о +24.8 +20.3 76 +31 +31 очень
душно
1013.9 1010.3
10 25.06 СВ 8 н/о н/о +23.8 +20.1 80 +29 +29 душно 1013.7 1010.1
12 25.06 С 7 18 км [макс. диам. градин 0 мм] 9/1 300 м
[Sc Ac As Cs]
+25.5 +20.3 73 +31 +35 очень
душно
1014.0 1010.4
13 25.06 СВ 7 н/о н/о +24.7 +20.3 77 +31 +31 очень
душно
1013.8 1010.2
14 25.06 СВ 7 н/о н/о +24.3 +20.2 78 +30 +30 очень
душно
1013.4 1009.8
15 25.06 СВ 8 18 км 9/1 300 м
[Sc Ac As]
+24.4 +20.3 78 1013.0
17 25.06 СВ 7 н/о н/о +24.0 +20.3 80 +30 +30 очень
душно
1013.0 1009.4
16 25.06 СВ 7 н/о н/о +24.1 +20.4 80 +30 +30 очень
душно
1013.2 1009.6
18 25.06 С 7 18 км [макс. диам. градин 0 мм] 8/1 300 м
[Sc Ac As Cc]
+23.6 +20.2 81 +29 +30 душно 1012.6 1009.0 +25.6
19 25.06 СВ 7 н/о н/о +23.2 +20.5 85 +31 +31 очень
душно
1012.8 1009.2
20 25.06 С 7 н/о н/о +22.8 +20.3 86 +30 +30 очень
душно
1013.2 1009.6
21 25.06 СВ 8 н/о н/о +22.6 +20.5 88 1013.3
23 25.06 С 6 н/о н/о +22.5 +19.9 85 +29 +29 очень
душно
1013.6 1010.0
22 25.06 С 7 н/о н/о +22.7 +20.2 86 +29 +29 очень
душно
1013.4 1009.8
00 26.06 С 5 н/о н/о +22.5 +19.2 82 +28 +28 душно 1013.4 1009.8
01 26.06 С 7 н/о н/о +22.6 +19.8 84 +29 +29 очень
душно
1012.6 1009.0
02 26.06 С 6 н/о н/о +22.3 +19.2 83 +28 +28 душно 1012.4 1008.8
03 26.06 С 5 н/о н/о +22.7 +18.8 79 1012.1
05 26.06 СЗ 5 н/о н/о +23.0 +18.6 76 +29 +29 очень
душно
1011.9 1008.3
04 26.06 С 4 н/о н/о +22.8 +18.5 77 +29 +29 очень
душно
1012.1 1008.5
06 26.06 С 6 15 км [макс. диам. градин 0 мм] 5/1 600 м
[Sc Ac trans Cc]
+22.6 +19.6 83 +29 +29 очень
душно
1012.0 1008.4 +22.3
07 26.06 СЗ 5 н/о н/о +22.2 +19.6 85 +28 +28 душно 1012.4 1008.8
08 26.06 С 6 н/о н/о +23.4 +20.1 82 +31 +31 очень
душно
1012.6 1009.0
09 26.06 С 5 18 км 1/1 600 м
[Sc]
+24.4 +20.5 79 1013.2
11 26.06 С 6 н/о н/о +25.2 +19.9 72 +31 +31 очень
душно
1013.5 1009.9
10 26.06 С 7 н/о н/о +24.8 +20.2 76 +31 +31 очень
душно
1013.3 1009.7
12 26.06 С 5 20 км [макс. диам. градин 0 мм] 1/1 600 м
[Cu hum]
+25.8 +19.6 69 +31 +41 очень
душно
1013.3 1009.7
13 26.06 С 5 н/о н/о +26.3 +19.9 68 +32 +32 очень
душно
1013.2 1009.6
14 26.06 С 5 н/о н/о +26.1 +19.5 67 +32 +32 очень
душно
1013.2 1009.6
15 26.06 С 6 25 км ясно +25.8 +20.0 70 1012.7
17 26.06 С 5 н/о н/о +25.4 +19.4 69 +31 +31 очень
душно
1012.5 1008.9
16 26.06 С 6 н/о н/о +25.5 +19.7 70 +31 +31 очень
душно
1012.8 1009.2
18 26.06 С 5 25 км [макс. диам. градин 0 мм] ясно +24.9 +17.7 64 +29 +31 душно 1012.6 1009.0 +26.7
19 26.06 С 4 н/о н/о +25.6 +15.2 53 +29 +29 душно 1012.9 1009.3
20 26.06 СЗ 4 н/о н/о +24.9 +15.8 57 +28 +28 жарко 1013.2 1009.6
21 26.06 С 5 н/о н/о +24.1 +16.8 64 1013.5
23 26.06 С 8 н/о н/о +22.7 +19.3 81 +29 +29 очень
душно
1014.4 1010.8
22 26.06 С 4 н/о н/о +23.9 +15.5 59 +27 +27 жарко 1013.9 1010.3
00 27.06 С 5 н/о н/о +22.7 +19.1 80 +29 +29 очень
душно
1014.6 1011.0
01 27.06 С 5 н/о н/о +22.7 +16.9 70 +27 +27 душно 1014.5 1010.9
02 27.06 С 5 н/о н/о +22.5 +17.0 71 +27 +27 душно 1014.1 1010.5
03 27.06 СЗ 5 н/о н/о +24.5 +18.8 71 1014.0
05 27.06 СЗ 4 н/о н/о +24.3 +8.9 38 +25 +25 комфорт 1014.3 1010.7
04 27.06 С 4 н/о н/о +23.2 +11.6 48 +26 +26 жарко 1014.2 1010.6
06 27.06 С 5 20 км [макс. диам. градин 0 мм] 1/1
[Cu hum]
+22.5 +17.6 74 +28 +28 душно 1015.7 1012.0 +22.3
07 27.06 СЗ 3 н/о н/о +24.9 +11.0 42 +26 +26 жарко 1015.8 1012.2
08 27.06 С 4 н/о н/о +25.4 +16.5 58 +29 +29 душно 1016.2 1012.6
09 27.06 С 5 50 км 1/1 600 м
[Cu hum]
+25.2 +17.1 61 1016.6
11 27.06 С 6 н/о н/о +26.2 +19.2 65 +31 +31 очень
душно
1016.4 1012.8
10 27.06 С 6 н/о н/о +25.7 +19.5 69 +31 +31 очень
душно
1016.1 1012.5
12 27.06 С 5 50 км [макс. диам. градин 0 мм] ясно +26.3 +20.0 68 +32 +42 очень
душно
1016.6 1013.0
13 27.06 СЗ 4 н/о н/о +25.0 +19.5 72 +30 +30 душно 1017.1 1013.5
14 27.06 С 7 н/о н/о +25.7 +19.8 70 +31 +31 очень
душно
1016.7 1013.1
15 27.06 С 7 20 км ясно +25.4 +19.8 71 1016.6
16 27.06 С 8 н/о н/о +24.8 +19.8 74 +30 +30 душно 1016.9 1013.3

 

Местоположение метеостанции La Palma (Канарские Острова): широта 28.62 долгота -17.75 высота над уровнем моря 31 м.

В архиве по умолчанию представлена погода в La Palma за последнюю неделю. Архивные данные за месяц целиком и за предыдущие месяцы, начиная с января 2011 года, Вы можете получить, выбрав интересующий диапазон дат из раскрывающегося списка и нажав кнопку "Ввод!".

Внимание! Время в таблицах - всемирное. Для получения местного времени необходимо прибавить поправку, которая в La Palma равна 0 ч.

Смотрите также архив погоды в соседних городах и на ближайших метеорологических станциях:

Погода в La Gomera (Канарские Острова) (84 км)
Погода в Jijel Port (Алжир) (84 км)
Погода в Hierro (Канарские Острова) (90 км)
Погода в Izana (Канарские Острова) (127 км)
Погода в Tenerife Sur (Канарские Острова) (133 км)
Погода в Tenerife (Канарские Острова) (142 км)
Погода в Sta. Cruz De Teneri (Канарские Острова) (148 км)
Погода в Las Palmas (Канарские Острова) (245 км)
Погода в Fuerteventura (Канарские Острова) (381 км)
Погода в Lanzarote (Канарские Острова) (406 км)

Пояснения к столбцам:

Ветер - указаны скорость ветра в м/с - средняя за 10 мин, порывы в срок и между сроками (в фигурных скобках) и направление, откуда дует ветер: С - северный, СВ - северо-восточный, В - восточный, ЮВ - юго-восточный, Ю - южный, ЮЗ - юго-западный, З - западный, СЗ - северо-западный.
Видимость - горизонтальная дальность видимости в метрах или километрах. При видимости от 1 до 10 км при отсутствии осадков обычно наблюдается дымка, при ухудшении видимости до 1 км и менее - туман. В сухую погоду видимость может ухудшаться дымом, пылью или мглою.
Явления - указаны атмосферные явления, наблюдавшиеся в срок или в последний час перед сроком; фигурными скобками обозначены явления, наблюдавшиеся между сроками (за 1-3 часа до срока); квадратными скобками обозначены град или гололедные отложения с указанием их диаметра в мм.
Облачность - указаны через наклонную черту общая и нижняя облачность в баллах и высота нижней границы облаков в метрах; квадратными скобками обозначены формы облаков: Ci - перистые, Cs - перисто-слоистые, Cc - перисто-кучевые, Ac - высококучевые, As - высокослоистые, Sc - слоисто-кучевые, Ns - слоисто-дождевые, Cu - кучевые, Cb - кучево-дождевые. Подробнее классификацию облаков см. в Атласе облаков (PDF).
T - Температура воздуха - температура, измеренная на высоте 2 м над землей.
Td - Температура точки росы - температура, при понижении до которой содержащийся в воздухе водяной пар достигнет насыщения.
f - Относительная влажность воздуха - влажноcть воздуха, измеренная на высоте 2 м над землей.
Te - Эффективная температура - температура, которую ощущает одетый по сезону человек в тени. Характеристика душности погоды. При расчете учитывается влияние влажности воздуха и скорости ветра на теплоощущения человека.
Tes - Эффективная температура на солнце - температура, которую ощущает человек, с поправкой на солнечный нагрев. Характеристика знойности погоды. Зависит от высоты солнца над горизонтом, облачности и скорости ветра. Ночью, в пасмурную погоду, а также при ветре 12 м/с и более поправка равна нулю.
P - Атмосферное давление - приведенное к уровню моря атмосферное давление.
Po - Атмосферное давление - измеренное на уровне метеостанции атмосферное давление.
Tmin - Минимальная температура - минимум температуры воздуха на высоте 2 м над землей.
Tmax - Максимальная температура - максимум температуры воздуха на высоте 2 м над землей.
R - Количество осадков - Количество выпавших осадков за период времени, мм. При наведении курсора мыши на число - период времени, за который выпало указанное количество осадков.
R24 - Количество осадков - Количество выпавших осадков за 24 часа, мм.
S - Снежный покров - Высота снежного покрова, см. При наведении курсора мыши на число - состояние снежного покрова и степень покрытия местности в баллах.